Simultaneous Nadir Overpasses (SNOs) Predictions

Prediction of SNOs between METOP-A and TERRA Satellite Orbit:

Table of predicted SNOs for the next 14.0 days since TLE Epoch: 1/16/2017
Index Date (METOP-A) Time (METOP-A) Lat,Lon (METOP-A) SZA (METOP-A ) Date (TERRA) Time (TERRA) Lat,Lon (TERRA) SZA (TERRA ) Distance(km) Time Diff (sec)
1 01/18/2017 21:36:01 -81.31, 82.95 76.01 01/18/2017 21:36:52 -81.31, 83.05 75.98 1.65 51
2 01/18/2017 22:26:41 81.31,-109.39 104.02 01/18/2017 22:26:18 81.31,-109.23 104.03 2.70 23
3 01/21/2017 17:10:23 -81.31, 149.33 76.64 01/21/2017 17:11:06 -81.30, 149.31 76.64 0.91 43
4 01/21/2017 18:01:02 81.31, -42.62 103.43 01/21/2017 18:00:31 81.32, -42.61 103.42 0.85 31
5 01/24/2017 12:44:44 -81.31,-143.91 77.28 01/24/2017 12:45:19 -81.31,-144.09 77.29 3.03 35
6 01/
